Track STARLINK-1364 now! 10-day predictions STARLINK-1364 is classified as:
1 45589U 20025BL 21027.15653156 .00047355 00000-0 32000-2 0 9995 2 45589 52.9986 180.2866 0001592 93.0631 267.0539 15.06128074 43421